Location: Anankanda
(14.7841°N, 3.0348°W)
Time: 05:23:44
(UTC+00:00)

Milstar 3 - Pass Details

Date: 17 January 2021
Orbit: 1093 x 5152 km, 28.3° (Epoch: 11 February)

Event Time Altitude Azimuth Distance (km) Brightness Sun altitude
Rises 18:45:34 0° 230° (SW) 5,968 8.0 -10.4°
Reaches altitude 10° 18:50:18 10° 224° (SW) 4,392 7.0 -11.5°
Maximum altitude 19:00:01 46° 154° (SSE) 1,734 3.7 -13.7°
Enters shadow 19:04:56 18° 89° (E) 2,468 4.0 -14.9°
